Theta_e
334 336 337 337 340 343 347 347 349 350 351 353 355 355 356 359 361 362 351 355 352 352 351 353 359 362 361 362 363 360 364 360 358
331 334 337 337 341 344 346 348 349 351 350 352 353 352 355 358 359 357 356 360 359 354 359 355 360 361 361 362 363 362 363 357 360
331 334 334 339 340 343 346 348 350 352 352 352 352 352 354 355 358 358 360 359 359 358 359 360 360 361 361 361 362 363 363 359 362
331 333 334 340 341 345 347 349 349 350 351 352 351 353 354 354 355 356 359 362 361 362 362 361 359 360 360 361 361 363 363 362 360
334 333 335 339 342 344 347 348 349 351 351 351 352 353 355 354 355 356 355 357 359 361 363 359 361 360 359 359 360 362 361 359 358
332 335 334 337 338 340 344 348 350 352 353 353 353 354 353 353 354 355 355 356 358 360 362 362 361 362 362 361 362 361 362 361 360
334 333 337 335 337 336 343 345 351 353 352 355 356 354 354 354 355 355 356 357 358 358 362 361 361 362 362 362 361 363 362 361 361
333 333 335 336 340 339 341 341 345 349 353 355 356 356 356 356 358 359 359 358 359 360 360 361 363 361 361 361 360 356 361 362 361
333 335 337 336 334 337 338 340 337 343 349 351 355 355 356 358 359 361 361 362 360 361 360 361 361 360 359 360 356 338 341 351 358
321 325 335 337 336 335 337 337 336 336 345 348 350 353 350 352 355 354 358 361 362 361 360 360 360 360 359 358 359 332 332 336 354
319 320 321 325 335 338 340 340 338 339 340 345 349 349 353 348 354 353 356 358 359 350 363 362 359 357 359 359 357 327 325 327 350
322 321 321 323 327 330 334 336 335 340 340 343 347 344 352 352 353 350 353 350 356 355 357 354 357 355 356 354 354 326 323 329 349
325 326 325 324 329 329 330 331 335 341 339 341 340 348 348 346 347 345 344 349 350 341 338 334 333 340 345 326 346 320 319 325 346
326 328 329 330 328 324 326 328 334 336 339 340 343 344 347 347 349 346 347 347 343 339 332 326 327 327 323 324 328 329 315 317 337
326 325 326 328 327 325 326 328 334 336 337 340 343 345 346 345 338 335 329 325 322 323 324 320 316 317 316 317 320 315 314 315 316
326 326 325 327 325 325 323 324 328 326 328 336 333 333 332 332 333 331 335 328 321 320 318 316 315 316 316 317 319 316 314 314 316
324 326 326 326 325 323 320 321 320 322 325 328 331 328 328 327 325 322 323 321 324 318 316 317 316 316 318 320 323 324 322 317 314
325 324 324 323 321 321 319 319 320 320 320 322 318 319 321 319 318 314 310 305 306 311 307 310 314 313 315 319 320 313 303 316 321
327 325 325 325 321 321 321 318 320 321 320 318 315 314 313 312 310 309 309 306 304 299 299 298 296 296 303 301 298 296 297 299 299
319 324 324 325 325 325 321 324 322 322 324 322 320 318 316 315 313 313 310 310 309 304 300 297 295 295 296 296 295 295 296 296 297
Wind_Speed
21 22 20 19 18 17 17 17 16 16 16 15 15 14 13 11 9 6 8 9 6 7 6 6 6 8 7 7 6 6 5 6 6
18 22 19 19 19 18 18 17 17 17 16 15 15 15 13 11 10 11 9 7 8 7 7 6 7 9 8 8 8 7 7 7 5
13 19 16 17 17 18 17 17 16 16 16 16 15 14 13 11 12 12 10 8 9 10 5 7 6 8 8 9 9 8 8 7 7
12 14 15 16 15 16 17 16 16 16 15 16 15 15 14 13 12 12 10 9 9 9 8 8 9 8 9 9 10 9 8 8 7
3 5 9 13 10 11 13 16 15 15 15 15 15 15 13 13 12 11 11 10 9 8 8 9 9 9 9 10 10 11 10 10 9
5 14 11 7 9 7 8 13 14 14 14 14 14 14 14 14 13 13 12 11 10 9 8 9 10 10 10 10 9 11 12 11 10
2 5 14 11 6 6 9 4 11 11 12 12 12 13 14 13 14 14 13 12 11 10 9 9 9 8 8 8 8 9 10 11 10
3 5 6 0 11 6 3 2 3 4 6 8 9 11 12 13 12 12 12 12 12 11 10 10 9 9 8 8 8 8 10 10 10
1 6 7 8 6 10 10 7 2 5 5 4 4 10 11 11 11 12 12 12 13 12 12 11 10 10 10 9 8 8 2 6 8
10 14 3 10 12 6 3 5 3 3 8 7 9 9 8 8 8 9 12 12 12 12 13 11 11 11 11 11 10 6 4 3 9
8 9 9 9 3 4 3 5 5 6 7 9 8 7 10 7 9 9 11 12 12 7 10 12 10 10 9 9 5 8 3 4 8
5 5 5 4 5 4 5 5 4 10 9 6 6 6 10 10 6 8 12 10 11 6 6 2 6 6 6 7 6 8 5 6 8
4 3 3 5 6 4 5 5 7 7 8 5 5 7 8 2 2 6 6 7 9 4 6 7 3 2 1 5 5 7 3 8 7
4 5 5 6 6 5 6 7 6 3 4 7 4 4 4 5 6 9 8 9 6 7 6 6 7 6 3 4 5 4 2 7 5
5 4 5 6 6 6 6 7 4 1 6 5 1 1 5 3 6 6 5 7 7 6 4 7 5 6 4 4 3 4 6 7 8
3 4 4 6 5 6 7 7 6 7 5 5 7 8 10 9 7 8 6 7 6 5 5 5 3 3 6 4 3 5 9 8 9
5 5 5 5 5 7 8 7 6 5 4 6 8 10 10 8 8 8 8 6 5 4 5 5 4 3 5 3 3 4 6 6 7
4 4 5 6 6 7 8 6 7 5 5 7 9 8 8 7 6 7 8 8 6 5 6 4 4 4 2 1 4 5 6 5 6
4 5 5 6 6 6 8 8 8 8 6 6 7 7 6 5 5 5 5 5 6 16 9 13 12 10 5 4 8 8 7 8 9
5 5 5 5 6 7 6 6 8 7 7 8 8 9 8 6 6 6 5 4 6 7 4 11 10 8 10 8 4 3 9 11 11
Wind_Direction
202 217 203 199 189 194 191 191 195 190 188 196 192 203 211 214 210 207 228 206 234 218 222 203 172 205 209 211 208 213 213 225 240
194 208 215 195 187 196 190 190 195 195 191 198 203 207 210 217 214 228 225 217 206 225 264 224 202 212 214 227 218 217 212 240 216
221 188 216 198 194 195 192 191 192 197 196 197 200 207 207 210 213 216 224 218 213 238 218 245 270 232 223 217 223 219 220 224 207
186 192 205 206 199 198 193 193 194 194 198 199 200 205 208 215 212 218 217 218 222 218 234 236 222 223 230 230 228 221 221 248 263
180 163 180 213 205 215 204 196 199 195 195 200 205 204 207 209 215 221 219 220 223 226 210 213 225 233 233 231 225 227 220 234 255
203 172 183 184 196 198 224 209 205 198 201 202 202 205 206 212 214 220 229 222 225 223 226 229 224 214 226 234 232 236 231 233 240
323 207 178 203 232 202 205 248 228 204 205 207 207 206 210 214 217 219 224 225 225 225 225 230 231 234 239 233 235 225 220 222 230
203 152 86 98 196 178 181 136 247 223 228 229 222 217 223 221 223 225 224 223 221 224 223 223 224 227 223 229 235 232 228 232 239
49 147 153 155 132 169 176 169 356 305 240 213 257 249 242 240 233 232 228 227 218 218 221 219 225 232 236 233 237 113 125 264 246
4 15 221 186 186 208 212 222 188 255 279 289 253 240 241 236 233 235 235 227 226 224 225 226 224 232 233 234 239 142 139 238 255
19 15 8 6 17 186 236 202 202 224 243 269 248 254 246 235 243 235 240 238 223 209 238 230 225 233 240 242 250 135 149 256 252
40 18 2 339 334 340 335 298 280 255 202 210 249 229 257 244 250 261 253 244 226 192 200 205 229 222 237 235 218 149 206 236 240
38 40 31 358 5 352 344 333 304 256 186 175 214 216 232 199 129 247 234 236 181 172 142 129 124 276 310 44 268 99 260 223 226
52 13 12 18 20 12 346 328 306 65 123 147 178 212 119 200 204 206 201 202 191 171 153 133 145 140 76 21 5 359 44 174 246
55 41 12 21 20 8 2 345 308 174 71 64 85 165 191 155 86 87 100 89 77 44 89 105 112 127 98 61 56 56 60 83 93
55 67 51 38 18 30 22 11 21 73 19 67 86 83 79 78 71 64 68 93 82 79 94 117 117 70 118 99 94 60 84 100 97
42 44 50 58 47 49 43 31 43 70 62 83 107 94 91 87 82 81 70 58 80 90 96 97 98 71 73 94 121 124 125 107 91
94 59 61 59 55 57 54 42 55 61 83 109 95 90 93 89 90 84 85 67 42 66 40 35 108 91 73 21 100 66 18 65 129
118 111 106 92 83 71 60 55 53 61 70 84 95 93 86 83 88 91 97 99 86 51 58 73 63 51 58 75 72 54 50 113 112
105 130 117 104 106 112 110 83 76 85 94 93 95 97 104 103 105 128 118 112 113 111 62 72 67 78 99 97 140 134 127 127 122